Whidbey Island, WA
on Thursday, February 14, 2013

Thursday
Previous Day Next Day
Daily Summary
 ActualAverageRecord
Temperature
Mean Temperature °F °F  
Max Temperature 46°F 46°F 55°F (2014)
Min Temperature 42°F 34°F 26°F (2005)
Degree Days
Heating Degree Days 21    
Moisture
Dew Point 41°F   
Average Humidity 88    
Maximum Humidity 97    
Minimum Humidity 77    
Precipitation
Precipitation 0.13 in in in ()
Wind
Wind Speed 6 mph   
Max Wind Speed 10 mph   
Max Gust Speed mph   
Visibility 8 miles   
Events Rain   
Averages and records for this station are not official NWS values.
Key: T is trace of precipitation, MM is missing value
Source: NWS Daily Summary
Seasonal Weather Averages
Time(PST)TemperatureDew PointHumidity Pressure Visibility Wind DirectionWind SpeedGust SpeedPrecipitationEvents Conditions
12:56 AM 45.1°F 38.5°F 77% 30.50 in 10.0 miles ESE 5.8 mph - N/A   Overcast
1:56 AM 43.3°F 38.8°F 84% 30.51 in 10.0 miles SSE 5.8 mph - N/A   Overcast
2:56 AM 44.8°F 39.2°F 81% 30.51 in 10.0 miles ESE 4.6 mph - N/A   Overcast
3:23 AM 44.6°F 39.2°F 81% 30.49 in 10.0 miles SE 3.5 mph - 0.00 in Rain Light Rain
3:56 AM 43.3°F 39.2°F 85% 30.51 in 10.0 miles ESE 3.5 mph - 0.00 in Rain Light Rain
4:56 AM 42.1°F 39.9°F 92% 30.52 in 6.0 miles Calm Calm - 0.03 in Rain Light Rain
5:56 AM 43.0°F 40.6°F 91% 30.53 in 6.0 miles East 5.8 mph - 0.05 in Rain Light Rain
6:38 AM 42.8°F 39.2°F 87% 30.51 in 5.0 miles East 5.8 mph - 0.02 in Rain Light Rain
6:56 AM 43.0°F 39.9°F 89% 30.53 in 5.0 miles East 8.1 mph - 0.03 in Rain Light Rain
7:56 AM 43.0°F 42.1°F 97% 30.55 in 2.5 miles East 4.6 mph - 0.02 in Rain Light Rain
8:25 AM 42.8°F 41.0°F 93% 30.53 in 2.5 miles ESE 8.1 mph - 0.00 in Rain Light Rain
8:56 AM 44.1°F 41.0°F 89% 30.54 in 3.0 miles ESE 8.1 mph - 0.00 in Rain Light Rain
9:04 AM 44.6°F 41.0°F 87% 30.54 in 3.0 miles ESE 9.2 mph - 0.00 in Rain Light Rain
9:30 AM 44.6°F 41.0°F 87% 30.54 in 7.0 miles ESE 10.4 mph - 0.00 in Rain Light Rain
9:56 AM 44.1°F 41.0°F 89% 30.56 in 8.0 miles ESE 8.1 mph - 0.00 in Rain Light Rain
10:56 AM 45.0°F 41.0°F 86% 30.55 in 8.0 miles ESE 9.2 mph - 0.00 in   Overcast
11:56 AM 45.0°F 41.0°F 86% 30.57 in 9.0 miles SE 9.2 mph - N/A   Overcast
12:35 PM 44.6°F 42.8°F 93% 30.55 in 8.0 miles SE 9.2 mph - 0.00 in Rain Light Rain
12:56 PM 45.0°F 42.1°F 90% 30.56 in 8.0 miles SE 10.4 mph - 0.00 in Rain Light Rain
1:47 PM 46.4°F 42.8°F 87% 30.55 in 10.0 miles ESE 10.4 mph - 0.00 in   Overcast
1:56 PM 46.0°F 42.1°F 86% 30.56 in 10.0 miles SE 9.2 mph - 0.00 in   Overcast
2:27 PM 46.4°F 42.8°F 87% 30.55 in 10.0 miles SE 9.2 mph - 0.00 in Rain Light Rain
2:56 PM 46.0°F 42.1°F 86% 30.57 in 8.0 miles SSE 8.1 mph - 0.00 in Rain Light Rain
3:56 PM 45.0°F 42.1°F 90% 30.57 in 7.0 miles SE 4.6 mph - 0.00 in Rain Light Rain
4:23 PM 46.4°F 42.8°F 87% 30.56 in 10.0 miles ESE 3.5 mph - 0.00 in   Overcast
4:56 PM 46.0°F 42.1°F 86% 30.57 in 10.0 miles ESE 4.6 mph - 0.00 in   Overcast
5:44 PM 44.6°F 42.8°F 93% 30.56 in 10.0 miles Calm Calm - N/A   Overcast
5:56 PM 45.0°F 42.1°F 90% 30.57 in 10.0 miles Calm Calm - N/A   Overcast
6:56 PM 45.0°F 42.1°F 90% 30.58 in 10.0 miles Calm Calm - N/A   Overcast
7:56 PM 45.0°F 41.0°F 86% 30.58 in 10.0 miles East 4.6 mph - N/A   Overcast
8:56 PM 45.0°F 42.1°F 90% 30.58 in 10.0 miles ENE 4.6 mph - N/A   Overcast
9:09 PM 44.6°F 42.8°F 93% 30.57 in 10.0 miles Calm Calm - N/A   Overcast
9:56 PM 45.0°F 42.1°F 90% 30.58 in 8.0 miles Calm Calm - N/A   Mostly Cloudy
10:56 PM 44.1°F 41.0°F 89% 30.58 in 6.0 miles Calm Calm - N/A   Overcast
11:56 PM 44.1°F 41.0°F 89% 30.58 in 7.0 miles Calm Calm - N/A   Mostly Cloudy
Moon Phase
Feb. 14 Feb. 17 Feb. 25 Mar. 04 Mar. 11
Sunrise:07:18 AM (PST) Moon Rise:08:56 AM (PST)2/14
Sunset:05:31 PM (PST) Moon Set:11:09 PM (PST)2/14

Copyright © 2014 The Weather Underground, Inc.